Regional Weather Roundup
Issued by NWS Wilmington, NC

Home | Current Version | Previous Version | Text Only | Print | Product List | Glossary On
Versions: 1 2 3 4 5 6 7 8 9 10 11 12 13 14 15 16 17 18 19 20 21 22 23 24 25 26 27 28 29 30 31 32 33 34 35 36 37 38 39 40 41 42 43 44 45 46 47 48 49 50
000
ASUS42 KILM 302313
RWRILM
RWRILM
REGIONAL HOURLY WEATHER ROUNDUP
NATIONAL WEATHER SERVICE WILMINGTON NC
700 PM EDT SAT APR 30 2016

NOTE: "FAIR" INDICATES FEW OR NO CLOUDS BELOW 12,000 FEET WITH NO
SIGNIFICANT WEATHER AND/OR OBSTRUCTIONS TO VISIBILITY.

...............WFO WILMINGTON COUNTY WARNING AREA...............

......COASTAL NC AND SC COUNTIES......

CITY           SKY/WX    TMP DP  RH WIND       PRES   REMARKS
WILMINGTON     CLOUDY    65  59  81 E9        30.12R
N MYRTLE BEACH PTSUNNY   70  61  73 E10       30.08S
MYRTLE BEACH   PTSUNNY   70  57  64 E17G24    30.10R

......INLAND NC AND SC COUNTIES.......

CITY           SKY/WX    TMP DP  RH WIND       PRES   REMARKS
LUMBERTON      PTSUNNY   72  63  73 E13       30.06S
ELIZABETHTOWN  CLOUDY    71  62  74 SE7       30.09R
WHITEVILLE     MOSUNNY   70  62  75 E8        30.08R
FLORENCE       PTSUNNY   76  65  68 SE12      30.04R
DARLINGTON     NOT AVBL
KINGSTREE      FAIR      73  63  68 E12       30.04R
HARTSVILLE     FAIR     N/A N/A N/A E10       30.03R
BENNETTSVILLE  FAIR      77  68  73 E10       30.03S
CONWAY         FAIR      70  63  78 SE8       30.08R HAZE
GEORGETOWN     CLOUDY    68  63  83 NE12G17   30.08R
MARION         FAIR      73  64  73 SE7       30.05S

....................REST OF NORTH CAROLINA......................

.........EASTERN NC.........

CITY           SKY/WX    TMP DP  RH WIND       PRES   REMARKS
CAPE HATTERAS  CLOUDY    56  53  90 NE9G16    30.15R
JACKSONVILLE   CLOUDY    65  58  78 E10       30.13R
MOREHEAD CITY  CLOUDY    63  56  78 NE9       30.14R
KENANSVILLE    CLOUDY    65  57  77 CALM      30.13R
NEW BERN       CLOUDY    64  55  72 E7        30.14F
ELIZABETH CITY PTCLDY    57  51  80 NE14      30.18S

.........CENTRAL NC.........

CITY           SKY/WX    TMP DP  RH WIND       PRES   REMARKS
RALEIGH DURHAM CLOUDY    62  57  83 E9        30.13S
ROCKY MOUNT    CLOUDY    61  56  83 E6        30.14S
ROANOKE RAPIDS NOT AVBL
FAYETTEVILLE   CLOUDY    69  60  73 E12       30.08S
HOFFMAN        CLOUDY    70  62  75 E8        30.06R

.........WESTERN NC.........

CITY           SKY/WX    TMP DP  RH WIND       PRES   REMARKS
CHARLOTTE      TSTM      68  64  87 N8        30.02F FOG
GREENSBORO     DRIZZLE   60  59  96 E10       30.10S FOG
HICKORY        NOT AVBL
BOONE          NOT AVBL
ASHEVILLE      NOT AVBL

.....................REST OF SOUTH CAROLINA.....................

.........EASTERN SC.........

CITY           SKY/WX    TMP DP  RH WIND       PRES   REMARKS
CHARLESTON     CLOUDY    78  68  71 SE10      30.03R
BEAUFORT MCAS  MOSUNNY   79  68  69 SE8G16    30.01R
HILTON HEAD    SUNNY     77  70  78 SE5       30.02R

.........CENTRAL SC.........

CITY           SKY/WX    TMP DP  RH WIND       PRES   REMARKS
COLUMBIA       PTSUNNY   85  59  41 S16       29.97R
ORANGEBURG     MOSUNNY   81  63  54 S9        30.00R
SUMTER SHAW    CLOUDY    81  65  58 SE12G17   29.98R

.........WESTERN SC.........

CITY           SKY/WX    TMP DP  RH WIND       PRES   REMARKS
GREENVILLE     NOT AVBL
ROCK HILL      CLOUDY    70  67  90 NE8       30.00F
ANDERSON       LGT RAIN  67  65  93 NE8       29.96F
CLEMSON        NOT AVBL
GREENWOOD      CLOUDY    74  63  68 N12       29.99R


...................COASTAL AND OFFSHORE REPORTS..................

................LOCAL PIERS AND NC RESERVE................


STATION/POSITION TIME  SKY/WX   TEMP    WIND        PRES    VSBY
                                AIR SEA DIR/SP/G
                 (UTC)          (F)     (DEG/KT/KT) (MB)    (MI)
JOHNY MRCER PIER 2200            65 69              1018.6F
NC RESRV MASNBRO NOT AVBL
OCEAN CREST PIER NOT AVBL
SPRINGMAID  PIER 2200            67 71              1018.2R


................COASTAL AND OFFSHORE BUOYS................


STATION/POSITION TIME  SKY/WX   TEMP    WIND        PRES    VSBY
                                AIR SEA DIR/SP/G
                 (UTC)          (F)     (DEG/KT/KT) (MB)    (MI)
DIMNDSHOAL 41025 2250            59 73   40/ 16/ 21 1020.4R
WVE H/P(F/S)=  5/10 SWL H/P/D(F/S/D)=  3/ 40/10

CAPE LOOKOUT     2300            62      50/ 16/ 17 1020.4R
ONSLOW BAY 41036 NOT AVBL
ONSLOW BAY 41064 NOT AVBL
ONSLOW BAY 41159 2225               68                N/A
WVE H/P(F/S)=  4/ 5 SWL H/P/D(F/S/D)=  2/ 80/11

5SE WRITBC 41038 NOT AVBL
MASNBO INL 41110 2206               68                N/A
WVE H/P(F/S)=  4/ 5

WILM HARBR 41108 2226               67                N/A
WVE H/P(F/S)=  3/ 4

27SE WRITB 41037 2208            66 70   70/ 17/ 23 1019.1R
FRYING PAN 41013 2300            69 70   50/ 17/ 21 1018.5R
SUNST NRSH 41024 2208            68 68   90/ 14/ 17 1018.2R
CAPRS NRSH 41029 2208            74 72  100/  8/ 10 1016.8R
EDISTO     41004 2250            75 74   90/ 12/ 14 1016.4R
WVE H/P(F/S)=  3/ 4 SWL H/P/D(F/S/D)=  2/10



..........OFFSHORE BUOYS BEYOND 100 NM OFFSHORE...........
.....IN A TRIANGLE---HAT TO BERMUDA TO BAHAMAS TO HAT.....


STATION/POSITION TIME  SKY/WX   TEMP    WIND        PRES    VSBY
                                AIR SEA DIR/SP/G
                 (UTC)          (F)     (DEG/KT/KT) (MB)    (MI)
150E HAT   41001 NOT AVBL
W BERMUDA  41048 2250            70 70  340/ 12/ 14 1016.9R
WVE H/P(F/S)=  3/ 8 SWL H/P/D(F/S/D)=  3/ 40/ 8

ATLANTIC S 41049 2250            74 76   50/  6/  8 1016.8R
WVE H/P(F/S)=  3/ 8 SWL H/P/D(F/S/D)=  3/ 90/ 8

E BAHAMAS  41046 2250            78 79  100/ 12/ 14 1014.4R
WVE H/P(F/S)=  4/10 SWL H/P/D(F/S/D)=  3/ 70/10

NE BAHAMAS 41047 2250            76 78   90/ 10/ 12 1015.9R
WVE H/P(F/S)=  3/ 9 SWL H/P/D(F/S/D)=  2/110/ 9

120E CANVRL41010 2220            77 78  140/  2/  4 1016.4R

END



USA.gov is the U.S. government's official web portal to all federal, state and local government web resources and services.